COSMOS 2564 (761)

Last updated on Mon Sep 21 2026 00:03:22 GMT+0000 (Coordinated Universal Time)

1 54377U 22161A 26263.03154984 -.00000012 00000+0 00000+0 0 9993 2 54377 64.7422 189.5662 0010748 217.5051 142.4317 2.13102088 29650
UTC large
Height (km)
Speed (km/s)
/
Latitude / Longitude
Inclination (degrees)
Orbital Period (minutes)
Azimuth
Elevation
Range (km)
Doppler Factor

Next 0 passes for location: London (51.5072 / 0.1276)

No passes found over London.
COSMOS 2564 (761)